Torna al catalogo

OPS 7613

P/L 4

AttivoNavigazioneLEO
NORAD 4237·PAYLOAD·🇺🇸 United States

Lanciato Sep 30, 1969 da Vandenberg Space Force Base

Loading…

Prossimi Passaggi (prossime 24 ore)

TLE

AggiornatoSource: Space-Track

Epoca: Sep 14, 2026, 07:01 UTC

1 04237U 69082E   26257.29267995 -.00000001  00000-0  37500-4 0  9993
2 04237  70.0128 273.5363 0020132   5.9239   5.8400 13.96007537898745

Traccia OPS 7613 in tempo reale con AllMySat

Download on the App Store